Terra Alta, West Virginia
Current Conditions -  °F | °C
As of 5:40 AM on Sunday 26 Oct 2014 (Local Time) from K2G4 Reporting Station
Clear Clear  
Wind Chill: 37°   Ceiling: Unl
Heat Index: 43°   Visibility: 10mi
Dew Point: 25°   Wind: 10mph
Humidity: 49%   Direction: 270°W
Pressure: 29.82"   Gusts: 17mph
Location:  39.45°N, 79.55°W
Report Text: K2G4 260940Z AUTO 27009G15KT 10SM CLR 06/M04 A2982 RMK AO1
Loading
Personal Weather Stations






























Interactive Weather Map
Tropical Storm Tracking
New forecast layout! Learn more

10-Day Weather Forecast

Advertisements
Track Severe Weather on mobile